| time (UTC) | temp F | wind direction | speed MPH | gust MPH | rain 1hr in | rain 24hr in | rain mn in | humidity % | barometer mb |
| 20260507141548 | 48 | 320 | 5.0 | 16.0 | 0.00 | 0.36 | 0.00 | 58 | 1010.0 |
| 20260507140037 | 48 | 279 | 5.0 | 13.0 | 0.00 | 0.36 | 0.00 | 61 | 1010.1 |
| 20260507134549 | 47 | 263 | 3.0 | 16.0 | 0.00 | 0.41 | 0.00 | 64 | 1010.3 |
| 20260507133111 | 46 | 288 | 5.0 | 16.0 | 0.00 | 0.41 | 0.00 | 67 | 1010.3 |
| 20260507131545 | 45 | 205 | 6.0 | 15.0 | 0.00 | 0.41 | 0.00 | 66 | 1010.4 |
| 20260507130048 | 45 | 236 | 3.0 | 12.0 | 0.00 | 0.41 | 0.00 | 71 | 1010.5 |
| 20260507124537 | 44 | 250 | 3.0 | 10.0 | 0.00 | 0.46 | 0.00 | 72 | 1010.5 |
| 20260507123040 | 43 | 288 | 4.0 | 10.0 | 0.00 | 0.46 | 0.00 | 73 | 1010.4 |
| 20260507121541 | 42 | 232 | 5.0 | 9.0 | 0.00 | 0.46 | 0.00 | 76 | 1010.3 |
| 20260507120042 | 41 | 276 | 4.0 | 10.0 | 0.00 | 0.46 | 0.00 | 79 | 1010.4 |
| 20260507114555 | 40 | 311 | 3.0 | 10.0 | 0.00 | 0.50 | 0.00 | 82 | 1010.2 |
| 20260507113039 | 40 | 283 | 5.0 | 11.0 | 0.00 | 0.50 | 0.00 | 84 | 1010.3 |
| 20260507111541 | 39 | 255 | 2.0 | 10.0 | 0.00 | 0.50 | 0.00 | 87 | 1010.1 |
| 20260507110042 | 39 | 279 | 3.0 | 8.0 | 0.00 | 0.50 | 0.00 | 89 | 1009.9 |
| 20260507104544 | 38 | 279 | 3.0 | 9.0 | 0.00 | 0.50 | 0.00 | 90 | 1009.9 |
| 20260507103048 | 38 | 232 | 3.0 | 8.0 | 0.00 | 0.50 | 0.00 | 92 | 1009.7 |
| 20260507101545 | 38 | 247 | 2.0 | 8.0 | 0.00 | 0.50 | 0.00 | 93 | 1009.5 |
| 20260507100040 | 39 | 256 | 2.0 | 7.0 | 0.00 | 0.50 | 0.00 | 93 | 1009.5 |
| 20260507094557 | 39 | 273 | 3.0 | 9.0 | 0.00 | 0.50 | 0.00 | 92 | 1009.6 |
| 20260507093046 | 40 | 282 | 2.0 | 7.0 | 0.00 | 0.50 | 0.00 | 91 | 1009.5 |
| 20260507091543 | 40 | 290 | 4.0 | 13.0 | 0.00 | 0.50 | 0.00 | 91 | 1009.3 |
| 20260507090044 | 41 | 259 | 4.0 | 8.0 | 0.00 | 0.50 | 0.00 | 92 | 1009.3 |
| 20260507084542 | 41 | 269 | 3.0 | 9.0 | 0.00 | 0.50 | 0.00 | 94 | 1009.3 |
| 20260507083040 | 42 | 289 | 4.0 | 8.0 | 0.00 | 0.50 | 0.00 | 94 | 1009.2 |
| 20260507081542 | 42 | 255 | 1.0 | 8.0 | 0.00 | 0.50 | 0.00 | 94 | 1009.3 |
| 20260507080036 | 43 | 273 | 1.0 | 9.0 | 0.00 | 0.50 | 0.00 | 94 | 1009.4 |
| 20260507074549 | 43 | 300 | 2.0 | 8.0 | 0.00 | 0.50 | 0.00 | 94 | 1009.3 |
| 20260507073048 | 43 | 237 | 3.0 | 8.0 | 0.00 | 0.50 | 0.00 | 93 | 1009.2 |
| 20260507071542 | 43 | 252 | 5.0 | 11.0 | 0.00 | 0.50 | 0.00 | 93 | 1009.1 |
| 20260507070051 | 43 | 282 | 3.0 | 11.0 | 0.00 | 0.50 | 0.00 | 94 | 1009.0 |
| 20260507064548 | 43 | 275 | 3.0 | 10.0 | 0.00 | 0.50 | 0.00 | 95 | 1008.9 |
| 20260507063040 | 43 | 286 | 3.0 | 13.0 | 0.00 | 0.50 | 0.00 | 96 | 1008.7 |
| 20260507061539 | 43 | 235 | 4.0 | 10.0 | 0.00 | 0.50 | 0.00 | 97 | 1008.7 |
| 20260507060040 | 44 | 212 | 3.0 | 12.0 | 0.00 | 0.50 | 0.00 | 97 | 1008.7 |
| 20260507054544 | 44 | 256 | 1.0 | 7.0 | 0.00 | 0.50 | 0.00 | 97 | 1008.7 |
| 20260507053044 | 44 | 0 | 1.0 | 8.0 | 0.00 | 0.50 | 0.00 | 97 | 1008.7 |
| 20260507051542 | 44 | 272 | 1.0 | 8.0 | 0.00 | 0.50 | 0.00 | 97 | 1008.6 |
| 20260507050040 | 44 | 291 | 1.0 | 4.0 | 0.00 | 0.50 | 0.00 | 98 | 1008.5 |
| 20260507044556 | 44 | 177 | 0.0 | 3.0 | 0.00 | 0.50 | 0.00 | 98 | 1009.0 |
| 20260507043043 | 44 | 0 | 1.0 | 7.0 | 0.00 | 0.50 | 0.00 | 97 | 1008.7 |
| 20260507041546 | 45 | 261 | 2.0 | 6.0 | 0.00 | 0.50 | 0.00 | 97 | 1009.4 |
| 20260507040045 | 45 | 290 | 0.0 | 4.0 | 0.00 | 0.50 | 0.00 | 97 | 1009.0 |
| 20260507034544 | 45 | 0 | 2.0 | 7.0 | 0.00 | 0.50 | 0.50 | 97 | 1008.8 |
| 20260507033050 | 45 | 0 | 1.0 | 7.0 | 0.00 | 0.50 | 0.50 | 97 | 1009.0 |
| 20260507031556 | 45 | 179 | 0.0 | 3.0 | 0.00 | 0.50 | 0.50 | 97 | 1009.0 |
| 20260507024601 | 45 | 273 | 1.0 | 6.0 | 0.00 | 0.51 | 0.50 | 97 | 1009.0 |
| 20260507023040 | 45 | 290 | 0.0 | 5.0 | 0.00 | 0.51 | 0.50 | 97 | 1009.2 |
| 20260507021550 | 46 | 284 | 2.0 | 8.0 | 0.00 | 0.51 | 0.50 | 97 | 1009.3 |
| 20260507020054 | 46 | 300 | 3.0 | 10.0 | 0.01 | 0.51 | 0.50 | 97 | 1009.3 |
| 20260507014551 | 46 | 267 | 3.0 | 8.0 | 0.01 | 0.51 | 0.50 | 97 | 1009.2 |
| 20260507013042 | 46 | 290 | 2.0 | 7.0 | 0.01 | 0.51 | 0.50 | 97 | 1009.1 |
| 20260507011546 | 47 | 254 | 2.0 | 6.0 | 0.01 | 0.51 | 0.50 | 97 | 1008.9 |
| 20260507010044 | 47 | 257 | 2.0 | 9.0 | 0.00 | 0.50 | 0.49 | 97 | 1008.8 |
| 20260507004535 | 47 | 0 | 1.0 | 6.0 | 0.00 | 0.50 | 0.49 | 97 | 1008.6 |
| 20260507003042 | 47 | 290 | 2.0 | 8.0 | 0.00 | 0.50 | 0.49 | 98 | 1008.5 |
| 20260507001541 | 47 | 279 | 2.0 | 10.0 | 0.00 | 0.50 | 0.49 | 97 | 1008.3 |
| 20260507000040 | 47 | 295 | 2.0 | 10.0 | 0.00 | 0.50 | 0.49 | 98 | 1007.9 |
| 20260506234550 | 48 | 267 | 3.0 | 10.0 | 0.00 | 0.50 | 0.49 | 98 | 1007.6 |
| 20260506233046 | 48 | 257 | 3.0 | 10.0 | 0.00 | 0.50 | 0.49 | 98 | 1007.3 |
| 20260506231538 | 48 | 296 | 4.0 | 10.0 | 0.00 | 0.50 | 0.49 | 98 | 1007.0 |
| 20260506230043 | 47 | 244 | 3.0 | 11.0 | 0.00 | 0.50 | 0.49 | 98 | 1006.8 |
| 20260506224542 | 47 | 291 | 3.0 | 9.0 | 0.01 | 0.51 | 0.49 | 98 | 1006.6 |
| 20260506223040 | 47 | 290 | 2.0 | 7.0 | 0.01 | 0.51 | 0.49 | 98 | 1006.5 |
| 20260506221537 | 47 | 290 | 2.0 | 8.0 | 0.01 | 0.51 | 0.49 | 98 | 1006.4 |
| 20260506220040 | 47 | 134 | 1.0 | 7.0 | 0.01 | 0.51 | 0.49 | 98 | 1006.2 |
| 20260506214537 | 48 | 0 | 1.0 | 7.0 | 0.01 | 0.52 | 0.48 | 98 | 1005.9 |
| 20260506213043 | 48 | 0 | 2.0 | 6.0 | 0.01 | 0.52 | 0.48 | 98 | 1005.8 |
| 20260506211542 | 48 | 268 | 2.0 | 9.0 | 0.01 | 0.52 | 0.48 | 98 | 1005.6 |
| 20260506210048 | 49 | 0 | 2.0 | 12.0 | 0.01 | 0.52 | 0.48 | 97 | 1005.5 |
| 20260506204542 | 50 | 125 | 2.0 | 9.0 | 0.00 | 0.52 | 0.47 | 98 | 1005.2 |
| 20260506203040 | 51 | 0 | 1.0 | 5.0 | 0.00 | 0.52 | 0.47 | 98 | 1005.0 |
| 20260506201546 | 51 | 304 | 1.0 | 7.0 | 0.00 | 0.52 | 0.47 | 98 | 1004.8 |
| 20260506200043 | 52 | 0 | 1.0 | 6.0 | 0.00 | 0.52 | 0.47 | 98 | 1004.7 |
| 20260506194541 | 52 | 268 | 3.0 | 10.0 | 0.00 | 0.52 | 0.47 | 98 | 1004.7 |
| 20260506193043 | 52 | 292 | 3.0 | 9.0 | 0.00 | 0.52 | 0.47 | 97 | 1004.7 |
| 20260506191548 | 54 | 0 | 1.0 | 6.0 | 0.00 | 0.52 | 0.47 | 97 | 1004.5 |
| 20260506190040 | 56 | 291 | 1.0 | 4.0 | 0.01 | 0.52 | 0.47 | 98 | 1004.4 |
| 20260506184545 | 57 | 277 | 1.0 | 4.0 | 0.01 | 0.52 | 0.47 | 98 | 1004.4 |
| 20260506183041 | 57 | 0 | 0.0 | 0.0 | 0.02 | 0.52 | 0.47 | 98 | 1004.3 |
| 20260506181540 | 57 | 0 | 0.0 | 3.0 | 0.03 | 0.52 | 0.47 | 98 | 1004.3 |
| 20260506180045 | 57 | 0 | 0.0 | 0.0 | 0.04 | 0.51 | 0.46 | 99 | 1004.6 |
| 20260506174537 | 56 | 153 | 0.0 | 2.0 | 0.06 | 0.51 | 0.46 | 98 | 1004.7 |
| 20260506173109 | 56 | 144 | 1.0 | 3.0 | 0.07 | 0.50 | 0.45 | 98 | 1004.6 |
| 20260506171536 | 56 | 0 | 1.0 | 3.0 | 0.08 | 0.49 | 0.44 | 98 | 1004.7 |
| 20260506170046 | 56 | 118 | 1.0 | 6.0 | 0.08 | 0.47 | 0.42 | 98 | 1004.9 |
| 20260506164542 | 55 | 122 | 0.0 | 3.0 | 0.08 | 0.45 | 0.40 | 98 | 1005.1 |
| 20260506163041 | 55 | 86 | 0.0 | 7.0 | 0.08 | 0.43 | 0.38 | 98 | 1005.3 |
| 20260506161537 | 55 | 125 | 0.0 | 3.0 | 0.08 | 0.41 | 0.36 | 98 | 1005.2 |
| 20260506160036 | 55 | 0 | 0.0 | 2.0 | 0.08 | 0.39 | 0.34 | 98 | 1005.2 |
| 20260506154540 | 55 | 66 | 1.0 | 4.0 | 0.09 | 0.37 | 0.32 | 98 | 1005.3 |
| 20260506153046 | 55 | 113 | 0.0 | 2.0 | 0.09 | 0.35 | 0.30 | 98 | 1005.4 |
| 20260506151541 | 54 | 0 | 0.0 | 3.0 | 0.11 | 0.33 | 0.28 | 98 | 1005.6 |
| 20260506150043 | 54 | 0 | 0.0 | 3.0 | 0.12 | 0.31 | 0.26 | 98 | 1005.8 |
| 20260506144542 | 54 | 0 | 0.0 | 4.0 | 0.11 | 0.28 | 0.23 | 98 | 1006.2 |
| 20260506143037 | 54 | 126 | 0.0 | 3.0 | 0.10 | 0.25 | 0.20 | 98 | 1006.5 |